SWR160 LSZH-RJAA

Flight info

Callsign SWR160
Flight time N/A
Altitude 31000
Route DEGES Z2 UMVEG DCT DIMLO DCT INVED DCT SOKRU DCT DINRO DCT UDROS UM859 KARDE UL851 TBN UM11 REBLO/N0485F330 M11 MATAL T916 LEYLA N161 GASBI/K0896F330 N161 GILAK/K0883F350 N161 SARIN/K0878S1010 A368 OSUPO/K0882S1070 A368 FKG W188 LIKMI W270 DKO W69 HUR B339 LADIX W34 VAPGU W100 MUDOT DCT UNSEK A326 DONVO G597 AGAVO/N0476F370 Y644 EGOBA Y697 LANAT Y51 SAMON Y517 ESKAS Y303 ENTAK/N0474F380 Y30 SWAMP
Aircraft B77W/H-SDE1E2E3FGHIJ2J3J4J5M1RWXY/LB1D1

Departure

Time 2026-05-05 07:53
Airport Zürich Airport (LSZH)

Arrival

Time N/A
Airport Narita International Airport (RJAA)
Time Latitude Longitude Altitude Speed Heading
2026-05-05 07:19 47.46061 8.55337 1409 ft 0 kts
2026-05-05 07:42 47.46046 8.55335 1407 ft 4 kts
2026-05-05 07:42 47.46019 8.55330 1404 ft 4 kts 357°
2026-05-05 07:42 47.45997 8.55337 1409 ft 4 kts 337°
2026-05-05 07:43 47.45976 8.55358 1412 ft 4 kts 297°
2026-05-05 07:43 47.45971 8.55394 1412 ft 4 kts 268°
2026-05-05 07:43 47.45971 8.55419 1410 ft 1 kts 276°
2026-05-05 07:46 47.45971 8.55415 1411 ft 1 kts 276°
2026-05-05 07:46 47.45974 8.55370 1408 ft 8 kts 276°
2026-05-05 07:47 47.45982 8.55261 1403 ft 12 kts 276°
2026-05-05 07:47 47.45991 8.55142 1399 ft 12 kts 276°
2026-05-05 07:47 47.45999 8.55024 1402 ft 12 kts 276°
2026-05-05 07:47 47.46044 8.54928 1400 ft 12 kts 324°
2026-05-05 07:48 47.46116 8.54872 1405 ft 12 kts 336°
2026-05-05 07:48 47.46191 8.54822 1404 ft 12 kts 335°
2026-05-05 07:48 47.46265 8.54770 1400 ft 12 kts 334°
2026-05-05 07:48 47.46365 8.54702 1385 ft 19 kts 335°
2026-05-05 07:49 47.46482 8.54622 1403 ft 19 kts 335°
2026-05-05 07:49 47.46600 8.54541 1400 ft 19 kts 335°
2026-05-05 07:49 47.46718 8.54460 1385 ft 19 kts 337°
2026-05-05 07:49 47.46839 8.54389 1384 ft 19 kts 337°
2026-05-05 07:50 47.46958 8.54309 1385 ft 19 kts 335°
2026-05-05 07:50 47.47076 8.54229 1385 ft 19 kts 335°
2026-05-05 07:50 47.47194 8.54147 1401 ft 19 kts 334°
2026-05-05 07:50 47.47312 8.54065 1395 ft 19 kts 335°
2026-05-05 07:51 47.47430 8.53984 1400 ft 19 kts 335°
2026-05-05 07:51 47.47540 8.53907 1407 ft 17 kts 335°
2026-05-05 07:51 47.47601 8.53815 1409 ft 11 kts 290°
2026-05-05 07:51 47.47594 8.53710 1407 ft 11 kts 245°
2026-05-05 07:52 47.47562 8.53619 1408 ft 7 kts 234°
2026-05-05 07:52 47.47529 8.53621 1412 ft 1 kts 155°
2026-05-05 07:52 47.47524 8.53625 1412 ft 7 kts 155°
2026-05-05 07:52 47.47329 8.53761 1403 ft 67 kts 155°
2026-05-05 07:53 47.46659 8.54223 1381 ft 143 kts 155°
2026-05-05 07:53 47.45547 8.55000 1431 ft 203 kts 154°
2026-05-05 07:53 47.44272 8.55936 2088 ft 206 kts 153°
2026-05-05 07:53 47.43096 8.57173 2757 ft 212 kts 127°
2026-05-05 07:54 47.42565 8.59154 3424 ft 208 kts 92°
2026-05-05 07:54 47.42855 8.61199 3699 ft 210 kts 58°
2026-05-05 07:54 47.43825 8.62776 4097 ft 206 kts 42°
2026-05-05 07:54 47.44909 8.64205 4414 ft 211 kts 43°
2026-05-05 07:55 47.45926 8.65794 4667 ft 217 kts 60°
2026-05-05 07:55 47.46379 8.67961 4800 ft 227 kts 87°
2026-05-05 07:55 47.46423 8.70313 5125 ft 233 kts 89°
2026-05-05 07:55 47.46445 8.72765 5435 ft 244 kts 90°
2026-05-05 07:56 47.46473 8.75327 5848 ft 253 kts 89°
2026-05-05 07:56 47.46523 8.77988 6192 ft 266 kts 89°
2026-05-05 07:56 47.46606 8.80793 6524 ft 278 kts 88°
2026-05-05 07:56 47.46695 8.83634 7051 ft 280 kts 94°
2026-05-05 07:57 47.46338 8.86490 7500 ft 285 kts 108°
2026-05-05 07:57 47.45768 8.89290 8092 ft 286 kts 107°
2026-05-05 07:57 47.45267 8.92149 8670 ft 290 kts 105°
2026-05-05 07:57 47.44847 8.95096 9197 ft 296 kts 104°
2026-05-05 07:58 47.44425 8.98095 9795 ft 299 kts 105°
2026-05-05 07:58 47.43983 9.01113 10381 ft 301 kts 105°
2026-05-05 07:58 47.43506 9.04202 10623 ft 318 kts 106°
2026-05-05 07:58 47.43041 9.07488 10787 ft 337 kts 104°
2026-05-05 07:59 47.42578 9.10985 10953 ft 357 kts 104°
2026-05-05 07:59 47.42082 9.14617 11253 ft 371 kts 104°
2026-05-05 07:59 47.41552 9.18443 11788 ft 377 kts 103°
2026-05-05 07:59 47.41440 9.22289 12128 ft 389 kts 83°
2026-05-05 08:00 47.42070 9.26223 12605 ft 396 kts 77°
2026-05-05 08:00 47.42756 9.30184 13323 ft 399 kts 78°
2026-05-05 08:00 47.43403 9.34189 13945 ft 404 kts 79°
2026-05-05 08:00 47.44029 9.38255 14597 ft 406 kts 80°
2026-05-05 08:01 47.44649 9.42341 15268 ft 409 kts 80°
2026-05-05 08:01 47.45262 9.46404 15907 ft 411 kts 80°
2026-05-05 08:01 47.45884 9.50565 16513 ft 415 kts 80°
2026-05-05 08:01 47.46507 9.54754 17120 ft 419 kts 81°
2026-05-05 08:02 47.46984 9.58996 17735 ft 420 kts 87°
2026-05-05 08:02 47.47133 9.63313 18333 ft 420 kts 94°
2026-05-05 08:02 47.46957 9.67602 18937 ft 418 kts 98°
2026-05-05 08:02 47.46697 9.71904 19414 ft 423 kts 98°
2026-05-05 08:03 47.46433 9.76262 19863 ft 428 kts 98°
2026-05-05 08:03 47.46171 9.80672 20340 ft 432 kts 98°
2026-05-05 08:03 47.45913 9.85120 20834 ft 436 kts 97°
2026-05-05 08:03 47.45657 9.89603 21302 ft 440 kts 97°
2026-05-05 08:04 47.45400 9.94132 21776 ft 444 kts 97°
2026-05-05 08:04 47.45139 9.98691 22240 ft 448 kts 97°
2026-05-05 08:04 47.44874 10.03308 22693 ft 452 kts 97°
2026-05-05 08:04 47.44610 10.07892 23059 ft 457 kts 97°
2026-05-05 08:05 47.44334 10.12612 23455 ft 461 kts 97°
2026-05-05 08:05 47.44053 10.17357 23863 ft 463 kts 98°
2026-05-05 08:05 47.43607 10.22095 24284 ft 463 kts 103°
2026-05-05 08:05 47.42956 10.26751 24673 ft 464 kts 104°
2026-05-05 08:06 47.42278 10.31429 25026 ft 468 kts 104°
2026-05-05 08:06 47.41618 10.36088 25361 ft 471 kts 104°
2026-05-05 08:06 47.40965 10.40840 25754 ft 473 kts 104°
2026-05-05 08:06 47.40319 10.45619 26119 ft 475 kts 104°
2026-05-05 08:07 47.39665 10.50418 26391 ft 479 kts 104°
2026-05-05 08:07 47.39000 10.55256 26752 ft 482 kts 104°
2026-05-05 08:07 47.38329 10.60113 27082 ft 484 kts 104°
2026-05-05 08:07 47.37655 10.64991 27436 ft 487 kts 104°
2026-05-05 08:08 47.36976 10.69892 27782 ft 489 kts 104°
2026-05-05 08:08 47.36288 10.74817 28096 ft 491 kts 104°
2026-05-05 08:08 47.35596 10.79758 28425 ft 493 kts 104°
2026-05-05 08:08 47.34895 10.84747 28668 ft 496 kts 104°
2026-05-05 08:09 47.34187 10.89742 28833 ft 500 kts 104°
2026-05-05 08:09 47.33475 10.94764 29176 ft 500 kts 104°
2026-05-05 08:09 47.32762 10.99787 29623 ft 499 kts 104°
2026-05-05 08:09 47.32054 11.04782 30054 ft 497 kts 105°
2026-05-05 08:10 47.31347 11.09761 30420 ft 496 kts 105°
2026-05-05 08:10 47.30638 11.14717 30759 ft 495 kts 105°
2026-05-05 08:10 47.29199 11.24705 30886 ft 499 kts 105°
2026-05-05 08:11 47.27765 11.34609 30887 ft 495 kts 105°
2026-05-05 08:11 47.26321 11.44517 30878 ft 494 kts 105°
2026-05-05 08:12 47.24964 11.54432 30884 ft 494 kts 102°
2026-05-05 08:12 47.23908 11.64442 30900 ft 495 kts 101°
2026-05-05 08:13 47.22861 11.74455 30907 ft 495 kts 101°
2026-05-05 08:13 47.21776 11.84464 30924 ft 496 kts 102°
2026-05-05 08:14 47.20702 11.94458 30915 ft 498 kts 101°
2026-05-05 08:14 47.19721 12.04551 30931 ft 498 kts 100°
2026-05-05 08:15 47.18756 12.14645 30931 ft 498 kts 101°
2026-05-05 08:15 47.17774 12.24728 30918 ft 497 kts 101°
2026-05-05 08:16 47.16774 12.34772 30934 ft 497 kts 101°
2026-05-05 08:16 47.15759 12.44830 30929 ft 496 kts 101°
2026-05-05 08:17 47.14739 12.54859 30922 ft 496 kts 101°
2026-05-05 08:17 47.13719 12.64820 30935 ft 496 kts 101°
2026-05-05 08:18 47.12680 12.74854 30944 ft 497 kts 101°
2026-05-05 08:18 47.11632 12.84911 30932 ft 499 kts 101°
2026-05-05 08:19 47.10579 12.94890 30928 ft 499 kts 101°
2026-05-05 08:19 47.09516 13.04909 30936 ft 500 kts 101°
2026-05-05 08:20 47.08434 13.15023 30948 ft 500 kts 101°
2026-05-05 08:20 47.07343 13.25130 30929 ft 500 kts 101°
2026-05-05 08:21 47.06252 13.35138 30929 ft 500 kts 101°
2026-05-05 08:21 47.05154 13.45199 30939 ft 501 kts 101°
2026-05-05 08:22 47.04027 13.55277 30929 ft 500 kts 101°
2026-05-05 08:22 47.02901 13.65353 30954 ft 502 kts 101°
2026-05-05 08:23 47.01765 13.75461 30950 ft 503 kts 101°
2026-05-05 08:23 47.00619 13.85568 30949 ft 503 kts 101°
2026-05-05 08:24 46.99470 13.95609 30957 ft 503 kts 101°
2026-05-05 08:24 46.98305 14.05703 30960 ft 502 kts 101°
2026-05-05 08:25 46.97132 14.15780 30936 ft 502 kts 101°
2026-05-05 08:25 46.95948 14.25880 30951 ft 502 kts 101°
2026-05-05 08:26 46.94757 14.35956 30950 ft 502 kts 101°
2026-05-05 08:26 46.93759 14.44339 30958 ft 502 kts 101°
2026-05-05 08:27 46.92353 14.56068 30975 ft 504 kts 101°
2026-05-05 08:27 46.91130 14.66193 30970 ft 506 kts 101°
2026-05-05 08:28 46.90104 14.74619 30973 ft 507 kts 101°
2026-05-05 08:28 46.88855 14.84785 30955 ft 508 kts 101°
2026-05-05 08:29 46.87595 14.94961 30947 ft 508 kts 101°
2026-05-05 08:30 46.85699 15.10160 30942 ft 508 kts 101°
2026-05-05 08:30 46.84422 15.20306 30916 ft 507 kts 101°
2026-05-05 08:31 46.83133 15.30454 30933 ft 506 kts 101°
2026-05-05 08:31 46.81839 15.40564 30911 ft 506 kts 101°
2026-05-05 08:32 46.80539 15.50655 30927 ft 505 kts 101°
2026-05-05 08:32 46.79236 15.60692 30927 ft 505 kts 101°
2026-05-05 08:33 46.77919 15.70774 30943 ft 504 kts 101°
2026-05-05 08:33 46.76598 15.80806 30959 ft 503 kts 101°
2026-05-05 08:34 46.75269 15.90832 30941 ft 502 kts 102°
2026-05-05 08:34 46.73935 16.00820 30959 ft 501 kts 102°
2026-05-05 08:35 46.72603 16.10736 30941 ft 501 kts 102°